Regional Weather Roundup
Issued by NWS

Home | Current Version | Previous Version | Graphics & Text | Print | Product List | Glossary Off
Versions: 1 2 3 4 5 6 7 8 9 10 11 12 13 14 15 16 17 18 19 20 21 22 23 24 25 26 27 28 29 30 31 32 33 34 35 36 37 38 39 40 41 42 43 44 45 46 47 48 49 50

000
ASUS43 KDTX 220501
RWRMI
MICHIGAN HOURLY REGIONAL WEATHER ROUNDUP
NATIONAL WEATHER SERVICE DETROIT/PONTIAC MI
100 AM EDT SUN OCT 22 2017

NOTE: "FAIR" INDICATES FEW OR NO CLOUDS BELOW 12,000 FEET WITH NO
SIGNIFICANT WEATHER AND/OR OBSTRUCTION TO VISIBILITY.

MIZ047>049-052>055-059>063-066>070-074>076-081>083-220600-
SOUTHEAST LOWER MICHIGAN

CITY           SKY/WX    TMP DP  RH WIND       PRES   REMARKS
ADRIAN         PTCLDY    57  47  69 S6        30.16S
ALMA           CLEAR     63  43  49 S7        30.10S
ANN ARBOR      MOCLDY    53  49  86 CALM      30.15F
BAD AXE        CLOUDY    60  50  68 S12G18    30.12F
CARO           PTCLDY    61  49  65 S6        30.12S
DETROIT CITY   PTCLDY    59  50  72 S6        30.16F
DETROIT        MOCLDY    59  46  62 S6        30.17S
FLINT          CLOUDY    64  49  57 S8        30.13S
GROSSE ILE     CLOUDY    60  55  84 S3        30.16S
HILLSDALE      CLEAR     59  45  58 S6        30.14F
HOWELL         CLEAR     61  47  60 S6        30.13F

CITY           SKY/WX    TMP DP  RH WIND       PRES   REMARKS
JACKSON        CLEAR     62  45  53 S9        30.14S
LAMBERTVILLE   CLOUDY    62  45  55 CALM      30.16S
LANSING        CLEAR     62  44  51 S8        30.12S
LAPEER         FAIR      61  48  62 SW7       30.15S
MASON          CLEAR     62  45  54 S7        30.12F
MONROE         CLOUDY    59  43  54 CALM      30.15S
MT. CLEMENS    PTCLDY    52  52  97 S7        30.14F
PONTIAC        CLEAR     61  48  62 S7        30.14F
PORT HOPE        N/A     62  50  64 VRB7      30.10F
PORT HURON     PTCLDY    57  52  82 S3        30.17R
TRI CITIES     CLEAR     62  53  72 S9        30.11S
MIDLAND        FAIR      63  50  61 S7        30.09S
TROY           CLEAR     60  50  69 S3        30.17F
SAGINAW HB     CLEAR     63  48  59 S9        30.10S
$$
MIZ043>046-050>051-056>058-064>065-071>073-077>080-220600-
SOUTHWEST LOWER MICHIGAN

CITY           SKY/WX    TMP DP  RH WIND       PRES   REMARKS
BATTLE CREEK   CLEAR     63  46  54 S12       30.12S
BENTON HARBOR  PTCLDY    66  49  54 S9G21     30.06S
BIG RAPIDS     CLOUDY    60  44  54 S3        30.06S
COLDWATER      CLEAR     62  43  49 S8        30.12F
FREMONT        MOCLDY    65  52  64 S6        30.04S
HOLLAND        MOCLDY    66  52  60 S10       30.06S
GRAND RAPIDS   CLEAR     64  50  60 S12       30.07S
IONIA          FAIR      62  45  53 S10       30.09R
KALAMAZOO      PTCLDY    64  47  53 S9        30.10S
LUDINGTON      CLOUDY    66  52  61 S8        30.00S
MARSHALL       CLEAR     62  44  52 S6        30.11S
MOUNT PLEASANT CLEAR     64  45  51 S6        30.08S
MUSKEGON       PTCLDY    68  53  58 S14       30.03F
SOUTH HAVEN    PTCLDY    67  50  55 S10G16    30.06S
$$
MIZ016>042-220600-
NORTHERN LOWER MICHIGAN

CITY           SKY/WX    TMP DP  RH WIND       PRES   REMARKS
ALPENA         CLOUDY    63  53  70 S9        30.07S
BEAVER ISLAND  MOCLDY    66  50  56 S8G16     29.97S
BELLAIRE       MOCLDY    66  46  48 S9        30.02S
CADILLAC       CLOUDY    65  46  51 S12       30.05S
CHARLEVOIX     PTCLDY    66  47  49 S10G17    30.02S
FRANKFORT      MOCLDY    69  53  57 S13G20    29.98F
GAYLORD        PTCLDY    63  45  51 S10       30.05S
GRAYLING       PTCLDY    62  43  50 S6        30.07F
HARBOR SPRINGS PTCLDY    65  44  45 S5        30.01R
HOUGHTON LAKE  CLOUDY    59  46  62 SE7       30.08F
MANISTEE       CLOUDY    66  52  60 SE8       29.99F
OSCODA         CLOUDY    63  53  70 S12       30.10R
PELLSTON       PTCLDY    68  46  45 S9G17     30.01S
ROGERS CITY    CLOUDY    64  47  54 S9        30.05R
TRAVERSE CITY  PTCLDY    68  49  50 VRB6      29.99S
$$
MIZ007>008-015-220600-
EASTERN UPPER MICHIGAN

CITY           SKY/WX    TMP DP  RH WIND       PRES   REMARKS
KINROSS        CLOUDY    56  46  69 SE8       30.01S
MACKINAC ISLAN MOCLDY    62  44  51 SE5       30.00S
NEWBERRY       CLEAR     59  51  73 S8        29.97R
S. S. MARIE    CLOUDY    60  49  66 E5        30.01S
MUNISING         N/A     65  57  75 S16G26    29.87S
$$
MIZ004>006-011>014-085-220600-
CENTRAL UPPER MICHIGAN

CITY           SKY/WX    TMP DP  RH WIND       PRES   REMARKS
MANISTIQUE     CLEAR     61  55  78 S12G17    29.94S
ESCANABA       PTCLDY    61  56  83 S10G17    29.93R
MENOMINEE      CLEAR     65  57  75 S9        29.91R
SAWYER-GWINN   CLOUDY    62  56  79 S15       29.89R
$$
MIZ001>003-009>011-084-220600-
WESTERN UPPER MICHIGAN

CITY           SKY/WX    TMP DP  RH WIND       PRES   REMARKS
IRON MOUNTAIN  CLOUDY    64  54  69 S9        29.87S
HOUGHTON       CLEAR     64  54  69 S7        29.78S
COPPER HARBOR    N/A     63  54  72 SW14G25   29.76S
IRONWOOD       CLOUDY    68  58  70 S13G21    29.73F
$$

ABBREVIATIONS USED IN REMARKS
   TC - TEMPERATURE IN CELSIUS
  WCI - WIND CHILL INDEX
   HX - HEAT INDEX
  VSB - VISIBILITY





USA.gov is the U.S. government's official web portal to all federal, state and local government web resources and services.